Burnet, TX

5:31 AM CDT on May 29, 2017 (GMT -0500)
Burnet Municipal-Craddock

Weather History for KBMQ - May, 2013

Change the Weather History Date:

Wednesday, May 1, 2013

  Actual Average Record
Temperature  
Mean Temperature 76 °F -  
Max Temperature 88 °F 80 °F 93 °F (2002)
Min Temperature 66 °F 59 °F 46 °F (2005)
Cooling Degree Days 12    
Growing Degree Days 26 (Base 50)    
Moisture  
Dew Point 63 °F    
Average Humidity 71    
Maximum Humidity 90    
Minimum Humidity 41    
Precipitation  
Precipitation 0.00 in - - ()
Sea Level Pressure  
Sea Level Pressure 29.82 in    
Wind  
Wind Speed 7 mph (SSE)    
Max Wind Speed 12 mph    
Max Gust Speed 16 mph    
Visibility 9 miles    
Events      
Averages and records for this station are not official NWS values.
T = Trace of Precipitation, MM = Missing Value Source: NWS Daily Summary

Daily Weather History Graph

Daily Weather History Graph

Search for Another Location

Airport or City:

Trip Planner

Search our weather history database for the weather conditions in past years. The results will help you decide how hot, cold, wet, or windy it might be!

Date:

Astronomy

May. 01, 2013 Rise Set
Actual Time 6:48 AM CDT 8:11 PM CDT
Civil Twilight 6:23 AM CDT 8:37 PM CDT
Nautical Twilight 5:52 AM CDT 9:07 PM CDT
Astronomical Twilight 5:20 AM CDT 9:39 PM CDT
Moon 1:21 AM CDT (5/1) 12:28 PM CDT (5/1)
Length of Visible Light 14h 14m
Length of Day
13h 22m
Waning Gibbous, 59% of the Moon is Illuminated
May 1
Waning Gibbous
May 2
Last Quarter
May 9
New
May 17
First Quarter
May 24
Full

Hourly Weather History & Observations

Time (CDT) Temp. Heat Index Dew Point Humidity Pressure Visibility Wind Dir Wind Speed Gust Speed Precip Events Conditions
12:53 AM 70.0 °F - 62.1 °F 76% 29.79 in 10.0 mi SE 6.9 mph - N/A   Clear
1:53 AM 69.1 °F - 64.0 °F 84% 29.80 in 10.0 mi SE 4.6 mph - N/A   Partly Cloudy
2:22 AM 68.0 °F - 64.0 °F 87% 29.84 in 9.0 mi SSE 4.6 mph - N/A   Mostly Cloudy
2:29 AM 68.0 °F - 64.0 °F 87% 29.84 in 9.0 mi SE 5.8 mph - N/A   Mostly Cloudy
2:53 AM 68.0 °F - 64.0 °F 87% 29.79 in 9.0 mi SSE 5.8 mph - N/A   Mostly Cloudy
3:06 AM 68.0 °F - 64.0 °F 87% 29.82 in 9.0 mi SSE 8.1 mph - N/A   Scattered Clouds
3:27 AM 66.9 °F - 64.0 °F 90% 29.82 in 9.0 mi South 6.9 mph - N/A   Partly Cloudy
3:43 AM 66.9 °F - 64.0 °F 90% 29.82 in 8.0 mi South 5.8 mph - N/A   Mostly Cloudy
3:53 AM 66.9 °F - 64.0 °F 90% 29.78 in 8.0 mi South 4.6 mph - N/A   Overcast
4:01 AM 66.9 °F - 64.0 °F 90% 29.82 in 8.0 mi SSE 5.8 mph - N/A   Overcast
4:45 AM 66.9 °F - 64.0 °F 90% 29.81 in 8.0 mi South 9.2 mph - N/A   Overcast
4:53 AM 66.9 °F - 64.0 °F 90% 29.76 in 8.0 mi South 8.1 mph - N/A   Overcast
5:44 AM 66.0 °F - 63.0 °F 90% 29.82 in 8.0 mi SSW 8.1 mph - N/A   Overcast
5:53 AM 66.0 °F - 63.0 °F 90% 29.79 in 8.0 mi South 10.4 mph 16.1 mph N/A   Overcast
6:11 AM 66.0 °F - 62.1 °F 87% 29.83 in 9.0 mi South 8.1 mph - N/A   Overcast
6:53 AM 66.9 °F - 62.1 °F 84% 29.80 in 9.0 mi South 10.4 mph 16.1 mph N/A   Overcast
7:53 AM 68.0 °F - 62.1 °F 81% 29.81 in 7.0 mi South 9.2 mph - N/A   Overcast
8:53 AM 71.1 °F - 62.1 °F 73% 29.83 in 9.0 mi South 11.5 mph - N/A   Overcast
9:20 AM 72.0 °F - 63.0 °F 73% 29.87 in 8.0 mi South 10.4 mph - N/A   Scattered Clouds
9:53 AM 73.9 °F - 63.0 °F 68% 29.83 in 10.0 mi South 10.4 mph - N/A   Partly Cloudy
11:53 AM 81.0 °F 82.2 °F 63.0 °F 54% 29.83 in 10.0 mi South 8.1 mph - N/A   Partly Cloudy
12:53 PM 82.9 °F 83.7 °F 62.1 °F 49% 29.83 in 10.0 mi South 9.2 mph 16.1 mph N/A   Scattered Clouds
1:53 PM 84.0 °F 84.5 °F 62.1 °F 47% 29.83 in 10.0 mi SE 8.1 mph - N/A   Mostly Cloudy
2:53 PM 84.9 °F 85.4 °F 62.1 °F 46% 29.83 in 10.0 mi SSE 6.9 mph - N/A   Mostly Cloudy
3:53 PM 86.0 °F 86.1 °F 61.0 °F 43% 29.80 in 10.0 mi SE 8.1 mph - N/A   Partly Cloudy
4:53 PM 87.1 °F 87.0 °F 61.0 °F 41% 29.79 in 10.0 mi Variable 5.8 mph - N/A   Partly Cloudy
5:53 PM 87.1 °F 87.0 °F 61.0 °F 41% 29.78 in 10.0 mi SSE 6.9 mph - N/A   Partly Cloudy
6:53 PM 86.0 °F 86.1 °F 61.0 °F 43% 29.80 in 10.0 mi SE 8.1 mph - N/A   Mostly Cloudy
7:53 PM 82.0 °F 83.0 °F 62.1 °F 51% 29.82 in 10.0 mi ESE 6.9 mph - N/A   Scattered Clouds
8:53 PM 79.0 °F - 63.0 °F 58% 29.84 in 10.0 mi ESE 6.9 mph - N/A   Clear
9:53 PM 77.0 °F - 63.0 °F 62% 29.90 in 10.0 mi East 5.8 mph - N/A   Mostly Cloudy
10:53 PM 75.9 °F - 62.1 °F 62% 29.95 in 10.0 mi ENE 8.1 mph - N/A   Mostly Cloudy
11:53 PM 73.9 °F - 61.0 °F 64% 29.93 in 10.0 mi ENE 5.8 mph - N/A   Clear